Location: Boiro
(42.6475°N, 8.8834°W)
Time: 17:30:52
(UTC+01:00)

Transit 2A - Pass Details

Date: 08 December 2021
Orbit: 591 x 967 km, 66.7° (Epoch: 20 January)

Event Time Altitude Azimuth Distance (km) Brightness Sun altitude
Rises 02:27:38 0° 259° (W) 3,394 - -66.5°
Reaches altitude 10° 02:30:43 10° 276° (W) 2,527 - -66.1°
Maximum altitude 02:34:58 20° 323° (NW) 1,981 - -65.6°
Drops below altitude 10° 02:39:27 10° 9° (N) 2,671 - -65.1°
Sets 02:42:50 0° 25° (NNE) 3,648 - -64.6°
